Location: Arezzo
(43.4170°N, 11.8830°E)
Time: 20:47:13
(UTC+01:00)

STARLINK-2709 - Pass Details

Date: 30 October 2021
Orbit: 546 x 548 km, 53.1° (Epoch: 01 December)

Event Time Altitude Azimuth Distance (km) Brightness Sun altitude
Exits shadow 05:00:16 28° 71° (ENE) 1,048 5.6 -30.4°
Drops below altitude 10° 05:02:21 10° 61° (ENE) 1,820 7.1 -30.0°
Sets 05:04:37 0° 57° (ENE) 2,716 8.1 -29.6°
